User: anonymous   Login
Location: Unspecified
(0.0000°N, 0.0000°E)
Time: 19:10:14
(UTC+00:00)
Language:

STARLINK-31252 - Orbit

View from above orbital plane
View from above orbital plane
View from above satellite
View from above satellite

Ground track
Ground track

The orbit is defined by the following mean orbital elements,

1 59083U          26145.51042645 +.00000000 +00000-0 +53229-4 0 00008
2 59083  43.0004 153.6729 0001267 274.2296  85.8410 15.27582124    02
Epoch (UTC): 25 May 2026 12:15:00
Eccentricity: 0.0001267
inclination: 43.0004°
perigee height: 482 km
apogee height: 484 km
right ascension of ascending node: 153.6729°
argument of perigee: 274.2296°
revolutions per day: 15.27582124
mean anomaly at epoch: 85.8410°

The dashed part of the orbit path shows where the satellite is in the earth's shadow,  

DLR